This demonstration page uses our WeatherBlox Daily Observations layout. Learn more.

38.88101, -77.10428

Hourly Observations for June 6, 2019

Temp ( °F °C ) Dew Point ( °F °C ) Humidity (%) Winds ( mph kmh ) Pressure ( in mb ) Visibility ( mi km ) Precip ( " mm )
12:52 am 00:52 Partly Cloudy 74 23.3 70 21.1 88 88 SW 9 15 29.77 1008 10 16.0934 0 0
1:52 am 01:52 Mostly Cloudy 73 22.8 70 21.1 90 90 SSW 7 11 29.75 1008 9 14.48406 0 0
2:52 am 02:52 Cloudy 73 22.8 68 20 84 84 SW 9 15 29.74 1007 10 16.0934 0 0
3:52 am 03:52 Partly Cloudy 72 22.2 68 20 87 87 SW 5 7 29.74 1007 10 16.0934 0 0
4:52 am 04:52 Cloudy 71 21.7 67 19.4 87 87 S 6 9 29.73 1007 9 14.48406 0 0
5:52 am 05:52 Cloudy 72 22.2 68 20 87 87 S 7 11 29.74 1007 10 16.0934 0 0
6:52 am 06:52 Cloudy 73 22.8 67 19.4 81 81 S 6 9 29.75 1008 10 16.0934 0 0.0254
7:52 am 07:52 Cloudy 74 23.3 67 19.4 79 79 SW 6 9 29.77 1008 10 16.0934 0 0
8:52 am 08:52 Mostly Cloudy 76 24.4 68 20 77 77 VRB 3 6 29.77 1008 10 16.0934 0 0
9:52 am 09:52 Partly Cloudy 81 27.2 69 20.6 67 67 SW 8 13 29.77 1008 10 16.0934 0 0
10:52 am 10:52 Mostly Cloudy 85 29.4 65 18.3 51 51 NW 13 20 29.77 1008 10 16.0934 0 0
11:52 am 11:52 Mostly Cloudy 87 30.6 67 19.4 51 51 NNW 14 22 29.78 1009 10 16.0934 0 0
12:52 pm 12:52 Mostly Cloudy 87 30.6 65 18.3 48 48 NW 13 20 29.78 1009 10 16.0934 0 0
1:52 pm 13:52 Mostly Cloudy 88 31.1 64 17.8 45 45 WNW 12 19 29.78 1009 10 16.0934 0 0
2:52 pm 14:52 Mostly Cloudy 88 31.1 65 18.3 46 46 NW 12 19 29.77 1008 10 16.0934 0 0
3:52 pm 15:52 Partly Cloudy 89 31.7 63 17.2 42 42 N 10 17 29.78 1008 10 16.0934 0 0
4:01 pm 16:01 Partly Cloudy with Nearby Thunderstorms 89 31.7 63 17.2 42 42 NNW 14 22 29.77 1008 10 16.0934 0 0
4:20 pm 16:20 Partly Cloudy 89 31.7 63 17.2 42 42 NNW 10 17 29.77 1008 10 16.0934 0 0
4:52 pm 16:52 Mostly Cloudy 87 30.6 64 17.8 46 46 N 13 20 29.77 1008 10 16.0934 0 0
5:52 pm 17:52 Mostly Cloudy 88 31.1 63 17.2 43 43 N 10 17 29.77 1008 10 16.0934 0 0
6:52 pm 18:52 Mostly Cloudy 87 30.6 63 17.2 45 45 NNW 7 11 29.77 1008 10 16.0934 0 0
7:52 pm 19:52 Mostly Cloudy 85 29.4 64 17.8 50 50 N 8 13 29.79 1009 10 16.0934 0 0
8:52 pm 20:52 Mostly Cloudy 84 28.9 63 17.2 49 49 WNW 7 11 29.8 1009 10 16.0934 0 0
9:52 pm 21:52 Mostly Cloudy 81 27.2 63 17.2 54 54 N 6 9 29.82 1010 10 16.0934 0 0
10:52 pm 22:52 Mostly Cloudy 79 26.1 65 18.3 62 62 N 6 9 29.82 1010 10 16.0934 0 0
11:52 pm 23:52 Mostly Cloudy 79 26.1 65 18.3 62 62 N 3 6 29.83 1010 10 16.0934 0 0

Powered by AerisWeather